Location: Chmeli�t?
(49.8978°N, 15.0526°E)
Time: 00:00:49
(UTC+00:00)

Cosmos 2074 Rocket - Pass Details

Date: 06 October 2020
Orbit: 967 x 986 km, 82.9° (Epoch: 24 October)

Event Time Altitude Azimuth Distance (km) Brightness Sun altitude
Rises 23:02:04 0° 340° (NNW) 3,690 7.7 -45.6°
Reaches altitude 10° 23:05:13 10° 325° (NW) 2,734 6.7 -45.5°
Enters shadow 23:05:40 12° 322° (NW) 2,619 6.6 -45.5°
